Time,TemperatureF,DewpointF,PressureIn,WindDirection,WindDirectionDegrees,WindSpeedMPH,WindSpeedGustMPH,Humidity,HourlyPrecipIn,Conditions,Clouds,dailyrainin,SoftwareType,DateUTC
2014-08-21 00:04:00,77.9,75.7,30.07,ESE,120,0.0,0.0,93,0.00,,,0.00,Wunderground v.1.15,2014-08-21 05:04:00,
2014-08-21 00:10:00,77.7,75.5,30.07,ESE,120,0.0,0.0,93,0.00,,,0.00,Wunderground v.1.15,2014-08-21 05:10:00,
2014-08-21 00:15:00,77.7,75.5,30.07,ESE,120,0.0,0.0,93,0.00,,,0.00,Wunderground v.1.15,2014-08-21 05:15:00,
2014-08-21 00:20:00,77.6,75.4,30.07,ESE,120,0.0,0.0,93,0.00,,,0.00,Wunderground v.1.15,2014-08-21 05:20:00,
2014-08-21 00:26:00,77.5,75.6,30.06,ESE,120,0.0,0.0,94,0.00,,,0.00,Wunderground v.1.15,2014-08-21 05:26:00,
2014-08-21 00:32:00,77.3,75.4,30.07,ESE,120,0.0,0.0,94,0.00,,,0.00,Wunderground v.1.15,2014-08-21 05:32:00,
2014-08-21 00:38:00,77.3,75.1,30.06,ESE,120,0.0,0.0,93,0.00,,,0.00,Wunderground v.1.15,2014-08-21 05:38:00,
2014-08-21 00:44:00,77.1,74.9,30.06,ESE,120,0.0,0.0,93,0.00,,,0.00,Wunderground v.1.15,2014-08-21 05:44:00,
2014-08-21 00:50:00,77.1,75.2,30.06,ESE,120,0.0,0.0,94,0.00,,,0.00,Wunderground v.1.15,2014-08-21 05:50:00,
2014-08-21 00:56:00,77.0,75.1,30.06,ESE,120,0.0,0.0,94,0.00,,,0.00,Wunderground v.1.15,2014-08-21 05:56:00,
2014-08-21 01:03:00,76.9,75.4,30.06,ESE,120,0.0,0.0,95,0.00,,,0.00,Wunderground v.1.15,2014-08-21 06:03:00,
2014-08-21 01:08:00,76.7,75.2,30.06,ESE,120,0.0,0.0,95,0.00,,,0.00,Wunderground v.1.15,2014-08-21 06:08:00,
2014-08-21 01:13:00,76.7,75.2,30.06,ESE,120,0.0,0.0,95,0.00,,,0.00,Wunderground v.1.15,2014-08-21 06:13:00,
2014-08-21 01:19:00,76.5,75.0,30.06,ESE,120,0.0,0.0,95,0.00,,,0.00,Wunderground v.1.15,2014-08-21 06:19:00,
2014-08-21 01:25:00,76.4,74.9,30.06,ESE,120,0.0,0.0,95,0.00,,,0.00,Wunderground v.1.15,2014-08-21 06:25:00,
2014-08-21 01:30:00,76.2,74.7,30.05,ESE,120,0.0,0.0,95,0.00,,,0.00,Wunderground v.1.15,2014-08-21 06:30:00,
2014-08-21 01:36:00,76.1,74.6,30.05,ESE,120,0.0,0.0,95,0.00,,,0.00,Wunderground v.1.15,2014-08-21 06:36:00,
2014-08-21 01:41:00,76.0,74.5,30.05,ESE,120,0.0,0.0,95,0.00,,,0.00,Wunderground v.1.15,2014-08-21 06:41:00,
2014-08-21 01:47:00,75.9,74.7,30.05,ESE,120,0.0,0.0,96,0.00,,,0.00,Wunderground v.1.15,2014-08-21 06:47:00,
2014-08-21 01:52:00,75.8,74.6,30.04,ESE,120,0.0,0.0,96,0.00,,,0.00,Wunderground v.1.15,2014-08-21 06:52:00,
2014-08-21 01:57:00,75.8,74.6,30.05,ESE,120,0.0,0.0,96,0.00,,,0.00,Wunderground v.1.15,2014-08-21 06:57:00,
2014-08-21 02:03:00,75.7,74.5,30.05,ESE,120,0.0,0.0,96,0.00,,,0.00,Wunderground v.1.15,2014-08-21 07:03:00,
2014-08-21 02:08:00,75.7,74.5,30.04,ESE,120,0.0,0.0,96,0.00,,,0.00,Wunderground v.1.15,2014-08-21 07:08:00,
2014-08-21 02:13:00,75.6,74.4,30.04,ESE,120,0.0,0.0,96,0.00,,,0.00,Wunderground v.1.15,2014-08-21 07:13:00,
2014-08-21 02:18:00,75.6,74.4,30.04,ESE,120,0.0,0.0,96,0.00,,,0.00,Wunderground v.1.15,2014-08-21 07:18:00,
2014-08-21 02:23:00,75.5,74.3,30.04,ESE,120,0.0,0.0,96,0.00,,,0.00,Wunderground v.1.15,2014-08-21 07:23:00,
2014-08-21 02:28:00,75.5,74.3,30.04,ESE,120,0.0,0.0,96,0.00,,,0.00,Wunderground v.1.15,2014-08-21 07:28:00,
2014-08-21 02:33:00,75.5,74.3,30.04,ESE,120,0.0,0.0,96,0.00,,,0.00,Wunderground v.1.15,2014-08-21 07:33:00,
2014-08-21 02:38:00,75.4,74.2,30.04,ESE,120,0.0,0.0,96,0.00,,,0.00,Wunderground v.1.15,2014-08-21 07:38:00,
2014-08-21 02:43:00,75.4,74.2,30.04,ESE,120,0.0,0.0,96,0.00,,,0.00,Wunderground v.1.15,2014-08-21 07:43:00,
2014-08-21 02:48:00,75.4,74.5,30.05,ESE,120,0.0,0.0,97,0.00,,,0.00,Wunderground v.1.15,2014-08-21 07:48:00,
2014-08-21 02:53:00,75.4,74.5,30.04,ESE,120,0.0,0.0,97,0.00,,,0.00,Wunderground v.1.15,2014-08-21 07:53:00,
2014-08-21 02:58:00,75.4,74.5,30.04,ESE,120,0.0,0.0,97,0.00,,,0.00,Wunderground v.1.15,2014-08-21 07:58:00,
2014-08-21 03:03:00,75.5,74.6,30.04,ESE,120,0.0,0.0,97,0.00,,,0.00,Wunderground v.1.15,2014-08-21 08:03:00,
2014-08-21 03:08:00,75.4,74.5,30.03,ESE,120,0.0,0.0,97,0.00,,,0.00,Wunderground v.1.15,2014-08-21 08:08:00,
2014-08-21 03:13:00,75.3,74.4,30.03,ESE,120,0.0,0.0,97,0.00,,,0.00,Wunderground v.1.15,2014-08-21 08:13:00,
2014-08-21 03:18:00,75.1,73.9,30.03,ESE,120,0.0,0.0,96,0.00,,,0.00,Wunderground v.1.15,2014-08-21 08:18:00,
2014-08-21 03:23:00,74.9,73.7,30.03,ESE,120,0.0,0.0,96,0.00,,,0.00,Wunderground v.1.15,2014-08-21 08:23:00,
2014-08-21 03:28:00,74.8,73.6,30.03,ESE,120,0.0,0.0,96,0.00,,,0.00,Wunderground v.1.15,2014-08-21 08:28:00,
2014-08-21 03:33:00,74.7,73.5,30.03,ESE,120,0.0,0.0,96,0.00,,,0.00,Wunderground v.1.15,2014-08-21 08:33:00,
2014-08-21 03:38:00,74.7,73.5,30.03,ESE,120,0.0,0.0,96,0.00,,,0.00,Wunderground v.1.15,2014-08-21 08:38:00,
2014-08-21 03:43:00,74.7,73.8,30.04,ESE,120,0.0,0.0,97,0.00,,,0.00,Wunderground v.1.15,2014-08-21 08:43:00,
2014-08-21 03:48:00,74.6,73.7,30.04,ESE,120,0.0,0.0,97,0.00,,,0.00,Wunderground v.1.15,2014-08-21 08:48:00,
2014-08-21 03:53:00,74.6,73.7,30.04,ESE,120,0.0,0.0,97,0.00,,,0.00,Wunderground v.1.15,2014-08-21 08:53:00,
2014-08-21 03:59:00,74.6,73.7,30.04,ESE,120,0.0,0.0,97,0.00,,,0.00,Wunderground v.1.15,2014-08-21 08:59:00,
2014-08-21 04:04:00,74.6,73.7,30.04,ESE,120,0.0,0.0,97,0.00,,,0.00,Wunderground v.1.15,2014-08-21 09:04:00,
2014-08-21 04:09:00,74.6,73.7,30.03,ESE,120,0.0,0.0,97,0.00,,,0.00,Wunderground v.1.15,2014-08-21 09:09:00,
2014-08-21 04:14:00,74.6,74.0,30.03,ESE,120,0.0,0.0,98,0.00,,,0.00,Wunderground v.1.15,2014-08-21 09:14:00,
2014-08-21 04:19:00,74.7,74.1,30.04,ESE,120,0.0,0.0,98,0.00,,,0.00,Wunderground v.1.15,2014-08-21 09:19:00,
2014-08-21 04:24:00,74.8,74.2,30.04,ESE,120,0.0,0.0,98,0.00,,,0.01,Wunderground v.1.15,2014-08-21 09:24:00,
2014-08-21 04:29:00,74.8,74.2,30.04,ESE,120,0.0,0.0,98,0.00,,,0.01,Wunderground v.1.15,2014-08-21 09:29:00,
2014-08-21 04:34:00,74.9,74.3,30.04,ESE,120,0.0,0.0,98,0.00,,,0.01,Wunderground v.1.15,2014-08-21 09:34:00,
2014-08-21 04:39:00,75.0,74.4,30.04,ESE,120,0.0,0.0,98,0.00,,,0.01,Wunderground v.1.15,2014-08-21 09:39:00,
2014-08-21 04:44:00,74.9,74.3,30.04,ESE,120,0.0,0.0,98,0.00,,,0.01,Wunderground v.1.15,2014-08-21 09:44:00,
2014-08-21 04:49:00,74.8,74.2,30.04,ESE,120,0.0,0.0,98,0.00,,,0.01,Wunderground v.1.15,2014-08-21 09:49:00,
2014-08-21 04:54:00,74.6,74.0,30.05,ESE,120,0.0,0.0,98,0.00,,,0.01,Wunderground v.1.15,2014-08-21 09:54:00,
2014-08-21 04:59:00,74.6,74.0,30.05,ESE,120,0.0,0.0,98,0.00,,,0.01,Wunderground v.1.15,2014-08-21 09:59:00,
2014-08-21 05:04:00,74.6,74.0,30.05,ESE,120,0.0,0.0,98,0.00,,,0.01,Wunderground v.1.15,2014-08-21 10:04:00,
2014-08-21 05:09:00,74.6,74.0,30.05,ESE,120,0.0,0.0,98,0.00,,,0.01,Wunderground v.1.15,2014-08-21 10:09:00,
2014-08-21 05:14:00,74.6,74.0,30.05,ESE,120,0.0,0.0,98,0.00,,,0.01,Wunderground v.1.15,2014-08-21 10:14:00,
2014-08-21 05:19:00,74.4,73.8,30.06,ESE,120,0.0,0.0,98,0.00,,,0.01,Wunderground v.1.15,2014-08-21 10:19:00,
2014-08-21 05:24:00,74.3,73.4,30.06,ESE,120,0.0,0.0,97,0.00,,,0.01,Wunderground v.1.15,2014-08-21 10:24:00,
2014-08-21 05:29:00,74.3,73.4,30.06,ESE,120,0.0,0.0,97,0.00,,,0.01,Wunderground v.1.15,2014-08-21 10:29:00,
2014-08-21 05:34:00,74.2,73.3,30.06,ESE,120,0.0,0.0,97,0.00,,,0.01,Wunderground v.1.15,2014-08-21 10:34:00,
2014-08-21 05:39:00,74.1,73.2,30.06,ESE,120,0.0,0.0,97,0.00,,,0.01,Wunderground v.1.15,2014-08-21 10:39:00,
2014-08-21 05:44:00,74.1,73.2,30.06,ESE,120,0.0,0.0,97,0.00,,,0.01,Wunderground v.1.15,2014-08-21 10:44:00,
2014-08-21 05:49:00,74.0,73.1,30.06,ESE,120,0.0,0.0,97,0.00,,,0.01,Wunderground v.1.15,2014-08-21 10:49:00,
2014-08-21 05:54:00,74.0,73.1,30.06,ESE,120,0.0,0.0,97,0.00,,,0.01,Wunderground v.1.15,2014-08-21 10:54:00,
2014-08-21 06:00:00,73.9,73.0,30.06,ESE,120,0.0,0.0,97,0.00,,,0.01,Wunderground v.1.15,2014-08-21 11:00:00,
2014-08-21 06:05:00,73.9,73.3,30.06,ESE,120,0.0,0.0,98,0.00,,,0.01,Wunderground v.1.15,2014-08-21 11:05:00,
2014-08-21 06:10:00,73.8,73.2,30.07,ESE,120,0.0,0.0,98,0.00,,,0.01,Wunderground v.1.15,2014-08-21 11:10:00,
2014-08-21 06:15:00,73.8,73.2,30.07,ESE,120,0.0,0.0,98,0.00,,,0.01,Wunderground v.1.15,2014-08-21 11:15:00,
2014-08-21 06:20:00,73.8,73.2,30.07,ESE,120,0.0,0.0,98,0.00,,,0.01,Wunderground v.1.15,2014-08-21 11:20:00,
2014-08-21 06:25:00,73.7,73.1,30.08,ESE,120,0.0,0.0,98,0.00,,,0.01,Wunderground v.1.15,2014-08-21 11:25:00,
2014-08-21 06:30:00,73.6,72.7,30.08,ESE,120,0.0,0.0,97,0.00,,,0.01,Wunderground v.1.15,2014-08-21 11:30:00,
2014-08-21 06:35:00,73.6,73.0,30.08,ESE,120,0.0,0.0,98,0.00,,,0.01,Wunderground v.1.15,2014-08-21 11:35:00,
2014-08-21 06:40:00,73.6,73.0,30.08,ESE,120,0.0,0.0,98,0.00,,,0.01,Wunderground v.1.15,2014-08-21 11:40:00,
2014-08-21 06:45:00,73.6,73.0,30.08,ESE,120,0.0,0.0,98,0.00,,,0.01,Wunderground v.1.15,2014-08-21 11:45:00,
2014-08-21 06:50:00,73.6,73.0,30.09,ESE,120,0.0,0.0,98,0.00,,,0.01,Wunderground v.1.15,2014-08-21 11:50:00,
2014-08-21 06:55:00,73.6,73.0,30.09,ESE,120,0.0,0.0,98,0.00,,,0.01,Wunderground v.1.15,2014-08-21 11:55:00,
2014-08-21 07:00:00,73.6,73.0,30.09,ESE,120,0.0,0.0,98,0.00,,,0.01,Wunderground v.1.15,2014-08-21 12:00:00,
2014-08-21 07:05:00,73.7,73.1,30.09,ESE,120,0.0,0.0,98,0.00,,,0.01,Wunderground v.1.15,2014-08-21 12:05:00,
2014-08-21 07:10:00,73.9,73.3,30.10,ESE,120,0.0,0.0,98,0.00,,,0.01,Wunderground v.1.15,2014-08-21 12:10:00,
2014-08-21 07:15:00,74.2,73.6,30.10,ESE,120,0.0,0.0,98,0.00,,,0.01,Wunderground v.1.15,2014-08-21 12:15:00,
2014-08-21 07:20:00,74.5,74.2,30.11,ESE,120,0.0,0.0,99,0.00,,,0.01,Wunderground v.1.15,2014-08-21 12:20:00,
2014-08-21 07:25:00,74.8,74.5,30.11,ESE,120,0.0,0.0,99,0.00,,,0.01,Wunderground v.1.15,2014-08-21 12:25:00,
2014-08-21 07:30:00,75.5,75.2,30.11,ESE,120,0.0,0.0,99,0.00,,,0.01,Wunderground v.1.15,2014-08-21 12:30:00,
2014-08-21 07:35:00,76.2,75.9,30.11,ESE,120,0.0,0.0,99,0.00,,,0.01,Wunderground v.1.15,2014-08-21 12:35:00,
2014-08-21 07:40:00,76.8,76.5,30.10,ESE,120,0.0,0.0,99,0.00,,,0.01,Wunderground v.1.15,2014-08-21 12:40:00,
2014-08-21 07:45:00,77.2,76.9,30.11,ESE,120,0.0,0.0,99,0.00,,,0.01,Wunderground v.1.15,2014-08-21 12:45:00,
2014-08-21 07:50:00,77.6,77.3,30.11,ESE,120,0.0,1.0,99,0.00,,,0.01,Wunderground v.1.15,2014-08-21 12:50:00,
2014-08-21 07:55:00,77.8,77.5,30.11,ESE,120,0.0,1.0,99,0.00,,,0.01,Wunderground v.1.15,2014-08-21 12:55:00,
2014-08-21 08:00:00,78.2,77.9,30.11,ESE,122,1.0,3.0,99,0.00,,,0.01,Wunderground v.1.15,2014-08-21 13:00:00,
2014-08-21 08:05:00,78.5,78.2,30.11,ESE,120,0.0,0.0,99,0.00,,,0.01,Wunderground v.1.15,2014-08-21 13:05:00,
2014-08-21 08:10:00,78.9,78.3,30.11,East,97,0.0,3.0,98,0.00,,,0.01,Wunderground v.1.15,2014-08-21 13:10:00,
2014-08-21 08:15:00,79.5,78.6,30.11,NE,49,0.0,3.0,97,0.00,,,0.01,Wunderground v.1.15,2014-08-21 13:15:00,
2014-08-21 08:20:00,80.2,79.0,30.11,NE,48,0.0,3.0,96,0.00,,,0.01,Wunderground v.1.15,2014-08-21 13:20:00,
2014-08-21 08:25:00,80.9,79.0,30.11,NW,325,1.0,3.0,94,0.00,,,0.01,Wunderground v.1.15,2014-08-21 13:25:00,
2014-08-21 08:30:00,81.6,79.7,30.11,NW,325,0.0,3.0,94,0.00,,,0.01,Wunderground v.1.15,2014-08-21 13:30:00,
2014-08-21 08:35:00,82.2,79.6,30.11,NW,325,0.0,1.0,92,0.00,,,0.01,Wunderground v.1.15,2014-08-21 13:35:00,
2014-08-21 08:40:00,82.8,79.9,30.10,NW,311,0.0,4.0,91,0.00,,,0.01,Wunderground v.1.15,2014-08-21 13:40:00,
2014-08-21 08:45:00,83.4,80.2,30.10,NW,313,0.0,1.0,90,0.00,,,0.01,Wunderground v.1.15,2014-08-21 13:45:00,
2014-08-21 08:50:00,83.9,80.0,30.10,NW,304,0.0,5.0,88,0.00,,,0.01,Wunderground v.1.15,2014-08-21 13:50:00,
2014-08-21 08:55:00,84.6,81.0,30.11,NW,306,0.0,1.0,89,0.00,,,0.01,Wunderground v.1.15,2014-08-21 13:55:00,
2014-08-21 09:00:00,85.0,80.3,30.11,WNW,298,3.0,6.0,86,0.00,,,0.01,Wunderground v.1.15,2014-08-21 14:00:00,
2014-08-21 09:05:00,85.3,80.3,30.11,WNW,298,0.0,3.0,85,0.00,,,0.01,Wunderground v.1.15,2014-08-21 14:05:00,
2014-08-21 09:10:00,85.7,80.7,30.11,NW,311,0.0,7.0,85,0.00,,,0.01,Wunderground v.1.15,2014-08-21 14:10:00,
2014-08-21 09:15:00,85.9,80.1,30.11,WNW,287,0.0,8.0,83,0.00,,,0.01,Wunderground v.1.15,2014-08-21 14:15:00,
2014-08-21 09:20:00,86.2,80.8,30.11,WNW,292,0.0,8.0,84,0.00,,,0.01,Wunderground v.1.15,2014-08-21 14:20:00,
2014-08-21 09:26:00,86.8,81.0,30.11,WNW,292,0.0,1.0,83,0.00,,,0.01,Wunderground v.1.15,2014-08-21 14:26:00,
2014-08-21 09:31:00,86.9,80.4,30.11,WNW,294,0.0,6.0,81,0.00,,,0.01,Wunderground v.1.15,2014-08-21 14:31:00,
2014-08-21 09:36:00,87.0,80.1,30.11,NW,305,2.0,4.0,80,0.00,,,0.01,Wunderground v.1.15,2014-08-21 14:36:00,
2014-08-21 09:41:00,86.9,80.0,30.11,WNW,294,0.0,7.0,80,0.00,,,0.01,Wunderground v.1.15,2014-08-21 14:41:00,
2014-08-21 09:46:00,86.8,80.3,30.11,NW,305,0.0,5.0,81,0.00,,,0.01,Wunderground v.1.15,2014-08-21 14:46:00,
2014-08-21 09:51:00,86.9,80.0,30.11,West,276,4.0,5.0,80,0.00,,,0.01,Wunderground v.1.15,2014-08-21 14:51:00,
2014-08-21 09:56:00,87.1,80.2,30.11,WNW,292,0.0,6.0,80,0.00,,,0.01,Wunderground v.1.15,2014-08-21 14:56:00,
2014-08-21 10:01:00,87.4,80.8,30.11,WNW,300,0.0,6.0,81,0.00,,,0.01,Wunderground v.1.15,2014-08-21 15:01:00,
2014-08-21 10:06:00,87.9,80.2,30.10,NW,308,0.0,4.0,78,0.00,,,0.01,Wunderground v.1.15,2014-08-21 15:06:00,
2014-08-21 10:11:00,88.2,79.7,30.10,WNW,301,0.0,4.0,76,0.00,,,0.01,Wunderground v.1.15,2014-08-21 15:11:00,
2014-08-21 10:16:00,88.1,79.6,30.11,WNW,296,0.0,6.0,76,0.00,,,0.01,Wunderground v.1.15,2014-08-21 15:16:00,
2014-08-21 10:21:00,87.9,79.4,30.11,West,279,0.0,6.0,76,0.00,,,0.01,Wunderground v.1.15,2014-08-21 15:21:00,
2014-08-21 10:26:00,87.9,78.6,30.10,NNE,14,0.0,4.0,74,0.00,,,0.01,Wunderground v.1.15,2014-08-21 15:26:00,
2014-08-21 10:31:00,88.1,79.2,30.10,NNW,348,0.0,4.0,75,0.00,,,0.01,Wunderground v.1.15,2014-08-21 15:31:00,
2014-08-21 10:36:00,88.2,79.3,30.10,NNW,341,0.0,1.0,75,0.00,,,0.01,Wunderground v.1.15,2014-08-21 15:36:00,
2014-08-21 10:41:00,88.1,78.8,30.10,NW,325,0.0,2.0,74,0.00,,,0.01,Wunderground v.1.15,2014-08-21 15:41:00,
2014-08-21 10:46:00,88.4,78.6,30.10,WNW,283,0.0,5.0,73,0.00,,,0.01,Wunderground v.1.15,2014-08-21 15:46:00,
2014-08-21 10:51:00,89.0,79.6,30.10,WNW,283,0.0,5.0,74,0.00,,,0.01,Wunderground v.1.15,2014-08-21 15:51:00,
2014-08-21 10:56:00,89.1,78.0,30.10,NW,313,0.0,4.0,70,0.00,,,0.01,Wunderground v.1.15,2014-08-21 15:56:00,
2014-08-21 11:01:00,89.1,78.9,30.10,NW,313,0.0,4.0,72,0.00,,,0.01,Wunderground v.1.15,2014-08-21 16:01:00,
2014-08-21 11:07:00,89.5,79.3,30.09,WNW,288,0.0,0.0,72,0.00,,,0.01,Wunderground v.1.15,2014-08-21 16:07:00,
2014-08-21 11:12:00,89.9,80.5,30.10,WNW,288,0.0,0.0,74,0.00,,,0.01,Wunderground v.1.15,2014-08-21 16:12:00,
2014-08-21 11:17:00,90.1,79.0,30.10,WNW,288,0.0,1.0,70,0.00,,,0.01,Wunderground v.1.15,2014-08-21 16:17:00,
2014-08-21 11:22:00,90.1,77.7,30.10,WNW,288,0.0,3.0,67,0.00,,,0.01,Wunderground v.1.15,2014-08-21 16:22:00,
2014-08-21 11:27:00,90.7,78.7,30.09,SSW,205,2.0,2.0,68,0.00,,,0.01,Wunderground v.1.15,2014-08-21 16:27:00,
2014-08-21 11:32:00,91.4,78.0,30.09,SSW,202,0.0,3.0,65,0.00,,,0.01,Wunderground v.1.15,2014-08-21 16:32:00,
2014-08-21 11:37:00,92.1,78.6,30.09,SSW,202,0.0,0.0,65,0.00,,,0.01,Wunderground v.1.15,2014-08-21 16:37:00,
2014-08-21 11:42:00,92.4,78.4,30.08,SW,232,0.0,1.0,64,0.00,,,0.01,Wunderground v.1.15,2014-08-21 16:42:00,
2014-08-21 11:46:00,92.0,77.6,30.08,WSW,250,0.0,4.0,63,0.00,,,0.01,Wunderground v.1.15,2014-08-21 16:46:00,
2014-08-21 11:52:00,91.9,77.5,30.08,WSW,250,0.0,4.0,63,0.00,,,0.01,Wunderground v.1.15,2014-08-21 16:52:00,
2014-08-21 11:57:00,92.1,78.2,30.08,South,184,0.0,3.0,64,0.00,,,0.01,Wunderground v.1.15,2014-08-21 16:57:00,
2014-08-21 12:02:00,92.5,77.1,30.08,ESE,123,1.0,3.0,61,0.00,,,0.01,Wunderground v.1.15,2014-08-21 17:02:00,
2014-08-21 12:07:00,92.9,77.0,30.08,ESE,122,0.0,2.0,60,0.00,,,0.01,Wunderground v.1.15,2014-08-21 17:07:00,
2014-08-21 12:12:00,93.3,78.3,30.08,ESE,122,0.0,2.0,62,0.00,,,0.01,Wunderground v.1.15,2014-08-21 17:12:00,
2014-08-21 12:17:00,93.7,78.2,30.08,SE,130,0.0,0.0,61,0.00,,,0.01,Wunderground v.1.15,2014-08-21 17:17:00,
2014-08-21 12:22:00,94.0,78.0,30.08,SE,130,0.0,0.0,60,0.00,,,0.01,Wunderground v.1.15,2014-08-21 17:22:00,
2014-08-21 12:27:00,93.8,76.8,30.08,SE,130,0.0,1.0,58,0.00,,,0.01,Wunderground v.1.15,2014-08-21 17:27:00,
2014-08-21 12:32:00,93.6,78.1,30.08,SE,128,0.0,0.0,61,0.00,,,0.01,Wunderground v.1.15,2014-08-21 17:32:00,
2014-08-21 12:37:00,93.2,77.7,30.08,SE,129,0.0,0.0,61,0.00,,,0.01,Wunderground v.1.15,2014-08-21 17:37:00,
2014-08-21 12:42:00,92.8,77.4,30.08,SE,129,0.0,0.0,61,0.00,,,0.01,Wunderground v.1.15,2014-08-21 17:42:00,
2014-08-21 12:47:00,93.1,78.6,30.08,SE,128,0.0,0.0,63,0.00,,,0.01,Wunderground v.1.15,2014-08-21 17:47:00,
2014-08-21 12:52:00,93.3,75.8,30.08,SE,140,0.0,0.0,57,0.00,,,0.01,Wunderground v.1.15,2014-08-21 17:52:00,
2014-08-21 12:57:00,93.8,78.3,30.08,SE,140,0.0,0.0,61,0.00,,,0.01,Wunderground v.1.15,2014-08-21 17:57:00,
2014-08-21 13:03:00,94.0,78.5,30.08,WNW,286,0.0,0.0,61,0.00,,,0.01,Wunderground v.1.15,2014-08-21 18:03:00,
2014-08-21 13:08:00,94.1,77.6,30.08,WNW,296,0.0,4.0,59,0.00,,,0.01,Wunderground v.1.15,2014-08-21 18:08:00,
2014-08-21 13:13:00,94.6,80.0,30.08,South,173,1.0,1.0,63,0.00,,,0.01,Wunderground v.1.15,2014-08-21 18:13:00,
2014-08-21 13:18:00,94.9,77.3,30.08,South,171,0.0,3.0,57,0.00,,,0.01,Wunderground v.1.15,2014-08-21 18:18:00,
2014-08-21 13:23:00,95.3,78.7,30.08,ESE,105,0.0,1.0,59,0.00,,,0.01,Wunderground v.1.15,2014-08-21 18:23:00,
2014-08-21 13:28:00,95.3,76.6,30.08,SSE,152,0.0,1.0,55,0.00,,,0.01,Wunderground v.1.15,2014-08-21 18:28:00,
2014-08-21 13:33:00,95.4,76.1,30.07,SSE,152,0.0,0.0,54,0.00,,,0.01,Wunderground v.1.15,2014-08-21 18:33:00,
2014-08-21 13:38:00,95.6,77.9,30.07,SSW,204,0.0,3.0,57,0.00,,,0.01,Wunderground v.1.15,2014-08-21 18:38:00,
2014-08-21 13:43:00,95.6,76.9,30.07,SSW,204,0.0,1.0,55,0.00,,,0.01,Wunderground v.1.15,2014-08-21 18:43:00,
2014-08-21 13:48:00,95.4,76.7,30.07,SSW,204,0.0,1.0,55,0.00,,,0.01,Wunderground v.1.15,2014-08-21 18:48:00,
2014-08-21 13:53:00,95.5,76.2,30.07,SSW,204,0.0,0.0,54,0.00,,,0.01,Wunderground v.1.15,2014-08-21 18:53:00,
2014-08-21 13:58:00,95.5,76.2,30.06,WSW,244,0.0,4.0,54,0.00,,,0.01,Wunderground v.1.15,2014-08-21 18:58:00,
2014-08-21 14:03:00,95.4,75.0,30.06,West,259,2.0,4.0,52,0.00,,,0.01,Wunderground v.1.15,2014-08-21 19:03:00,
2014-08-21 14:08:00,95.4,75.6,30.06,West,260,0.0,4.0,53,0.00,,,0.01,Wunderground v.1.15,2014-08-21 19:08:00,
2014-08-21 14:13:00,95.6,74.6,30.06,West,272,0.0,2.0,51,0.00,,,0.01,Wunderground v.1.15,2014-08-21 19:13:00,
2014-08-21 14:18:00,95.7,72.9,30.06,NNW,331,4.0,6.0,48,0.00,,,0.01,Wunderground v.1.15,2014-08-21 19:18:00,
2014-08-21 14:23:00,95.7,74.7,30.05,NNW,331,0.0,1.0,51,0.00,,,0.01,Wunderground v.1.15,2014-08-21 19:23:00,
2014-08-21 14:29:00,95.9,74.3,30.05,NNW,331,0.0,1.0,50,0.00,,,0.01,Wunderground v.1.15,2014-08-21 19:29:00,
2014-08-21 14:34:00,96.3,72.8,30.05,NNW,331,0.0,0.0,47,0.00,,,0.01,Wunderground v.1.15,2014-08-21 19:34:00,
2014-08-21 14:39:00,96.6,74.3,30.04,WNW,301,1.0,5.0,49,0.00,,,0.01,Wunderground v.1.15,2014-08-21 19:39:00,
2014-08-21 14:44:00,96.7,75.6,30.04,WNW,301,0.0,1.0,51,0.00,,,0.01,Wunderground v.1.15,2014-08-21 19:44:00,
2014-08-21 14:49:00,96.7,73.2,30.04,NNW,329,4.0,6.0,47,0.00,,,0.01,Wunderground v.1.15,2014-08-21 19:49:00,
2014-08-21 14:54:00,96.4,74.7,30.04,NNW,329,0.0,1.0,50,0.00,,,0.01,Wunderground v.1.15,2014-08-21 19:54:00,
2014-08-21 14:59:00,96.2,74.5,30.03,NNW,329,0.0,1.0,50,0.00,,,0.01,Wunderground v.1.15,2014-08-21 19:59:00,
2014-08-21 15:04:00,96.2,75.7,30.03,NNW,329,0.0,2.0,52,0.00,,,0.01,Wunderground v.1.15,2014-08-21 20:04:00,
2014-08-21 15:09:00,96.3,76.9,30.03,NW,323,0.0,5.0,54,0.00,,,0.01,Wunderground v.1.15,2014-08-21 20:09:00,
2014-08-21 15:14:00,96.3,76.4,30.03,WNW,290,0.0,3.0,53,0.00,,,0.01,Wunderground v.1.15,2014-08-21 20:14:00,
2014-08-21 15:19:00,96.2,75.1,30.03,NW,315,1.0,5.0,51,0.00,,,0.01,Wunderground v.1.15,2014-08-21 20:19:00,
2014-08-21 15:24:00,96.0,74.4,30.03,NW,317,0.0,2.0,50,0.00,,,0.01,Wunderground v.1.15,2014-08-21 20:24:00,
2014-08-21 15:29:00,96.2,73.3,30.02,NW,317,5.0,5.0,48,0.00,,,0.01,Wunderground v.1.15,2014-08-21 20:29:00,
2014-08-21 15:34:00,96.2,73.9,30.02,NNW,331,0.0,3.0,49,0.00,,,0.01,Wunderground v.1.15,2014-08-21 20:34:00,
2014-08-21 15:39:00,96.5,73.6,30.01,NW,306,3.0,5.0,48,0.00,,,0.01,Wunderground v.1.15,2014-08-21 20:39:00,
2014-08-21 15:45:00,96.7,74.4,30.02,NW,306,0.0,1.0,49,0.00,,,0.01,Wunderground v.1.15,2014-08-21 20:45:00,
2014-08-21 15:50:00,96.9,75.2,30.01,NW,320,0.0,4.0,50,0.00,,,0.01,Wunderground v.1.15,2014-08-21 20:50:00,
2014-08-21 15:55:00,96.9,74.6,30.01,NW,320,0.0,1.0,49,0.00,,,0.01,Wunderground v.1.15,2014-08-21 20:55:00,
2014-08-21 16:00:00,96.9,74.0,30.01,NW,320,0.0,4.0,48,0.00,,,0.01,Wunderground v.1.15,2014-08-21 21:00:00,
2014-08-21 16:05:00,97.1,75.4,30.01,NW,319,0.0,0.0,50,0.00,,,0.01,Wunderground v.1.15,2014-08-21 21:05:00,
2014-08-21 16:10:00,97.2,75.5,30.01,NW,319,0.0,1.0,50,0.00,,,0.01,Wunderground v.1.15,2014-08-21 21:10:00,
2014-08-21 16:15:00,97.4,76.2,30.01,NW,319,0.0,0.0,51,0.00,,,0.01,Wunderground v.1.15,2014-08-21 21:15:00,
2014-08-21 16:20:00,97.6,78.1,30.01,NW,319,0.0,1.0,54,0.00,,,0.01,Wunderground v.1.15,2014-08-21 21:20:00,
2014-08-21 16:25:00,97.4,75.6,30.01,NW,324,1.0,4.0,50,0.00,,,0.01,Wunderground v.1.15,2014-08-21 21:25:00,
2014-08-21 16:30:00,97.2,78.3,30.00,NNW,327,0.0,4.0,55,0.00,,,0.01,Wunderground v.1.15,2014-08-21 21:30:00,
2014-08-21 16:35:00,96.6,78.9,30.01,ENE,72,0.0,7.0,57,0.00,,,0.01,Wunderground v.1.15,2014-08-21 21:35:00,
2014-08-21 16:40:00,95.8,79.7,30.01,SSE,152,0.0,7.0,60,0.00,,,0.01,Wunderground v.1.15,2014-08-21 21:40:00,
2014-08-21 16:45:00,95.3,80.2,30.01,SE,146,0.0,1.0,62,0.00,,,0.01,Wunderground v.1.15,2014-08-21 21:45:00,
2014-08-21 16:50:00,95.1,79.5,30.01,ENE,67,0.0,4.0,61,0.00,,,0.01,Wunderground v.1.15,2014-08-21 21:50:00,
2014-08-21 16:55:00,94.9,80.3,30.01,NE,48,5.0,5.0,63,0.00,,,0.01,Wunderground v.1.15,2014-08-21 21:55:00,
2014-08-21 17:00:00,94.4,80.3,30.02,East,82,0.0,5.0,64,0.00,,,0.01,Wunderground v.1.15,2014-08-21 22:00:00,
2014-08-21 17:05:00,94.3,81.2,30.02,ESE,107,0.0,1.0,66,0.00,,,0.01,Wunderground v.1.15,2014-08-21 22:05:00,
2014-08-21 17:10:00,94.1,80.1,30.01,NW,320,0.0,5.0,64,0.00,,,0.01,Wunderground v.1.15,2014-08-21 22:10:00,
2014-08-21 17:15:00,93.8,80.2,30.01,NNE,28,0.0,4.0,65,0.00,,,0.01,Wunderground v.1.15,2014-08-21 22:15:00,
2014-08-21 17:20:00,93.4,80.3,30.01,East,96,0.0,4.0,66,0.00,,,0.01,Wunderground v.1.15,2014-08-21 22:20:00,
2014-08-21 17:25:00,93.2,80.1,30.01,East,96,0.0,0.0,66,0.00,,,0.01,Wunderground v.1.15,2014-08-21 22:25:00,
2014-08-21 17:30:00,92.9,80.3,30.02,East,92,0.0,0.0,67,0.00,,,0.01,Wunderground v.1.15,2014-08-21 22:30:00,
2014-08-21 17:35:00,92.8,79.8,30.02,South,171,0.0,0.0,66,0.00,,,0.01,Wunderground v.1.15,2014-08-21 22:35:00,
2014-08-21 17:40:00,92.8,80.7,30.02,South,171,0.0,0.0,68,0.00,,,0.01,Wunderground v.1.15,2014-08-21 22:40:00,
2014-08-21 17:45:00,92.8,80.7,30.02,South,171,0.0,0.0,68,0.00,,,0.01,Wunderground v.1.15,2014-08-21 22:45:00,
2014-08-21 17:50:00,92.8,81.1,30.02,South,171,0.0,0.0,69,0.00,,,0.01,Wunderground v.1.15,2014-08-21 22:50:00,
2014-08-21 17:55:00,92.7,80.6,30.02,South,171,0.0,0.0,68,0.00,,,0.01,Wunderground v.1.15,2014-08-21 22:55:00,
2014-08-21 18:00:00,92.7,80.6,30.02,South,171,0.0,1.0,68,0.00,,,0.01,Wunderground v.1.15,2014-08-21 23:00:00,
2014-08-21 18:05:00,92.6,81.4,30.02,South,171,0.0,0.0,70,0.00,,,0.01,Wunderground v.1.15,2014-08-21 23:05:00,
2014-08-21 18:10:00,92.5,81.3,30.03,South,171,0.0,0.0,70,0.00,,,0.01,Wunderground v.1.15,2014-08-21 23:10:00,
2014-08-21 18:16:00,92.3,81.1,30.03,South,171,0.0,0.0,70,0.00,,,0.01,Wunderground v.1.15,2014-08-21 23:16:00,
2014-08-21 18:21:00,92.1,80.9,30.03,South,186,0.0,2.0,70,0.00,,,0.01,Wunderground v.1.15,2014-08-21 23:21:00,
2014-08-21 18:26:00,90.0,82.6,30.03,WSW,247,0.0,2.0,79,0.00,,,0.01,Wunderground v.1.15,2014-08-21 23:26:00,
2014-08-21 18:31:00,87.9,80.2,30.03,WNW,300,0.0,2.0,78,0.00,,,0.01,Wunderground v.1.15,2014-08-21 23:31:00,
2014-08-21 18:36:00,86.2,80.4,30.03,WNW,303,0.0,1.0,83,0.00,,,0.01,Wunderground v.1.15,2014-08-21 23:36:00,
2014-08-21 18:41:00,84.5,79.8,30.03,NW,304,0.0,2.0,86,0.00,,,0.02,Wunderground v.1.15,2014-08-21 23:41:00,
2014-08-21 18:46:00,83.3,79.4,30.03,NW,305,0.0,0.0,88,0.00,,,0.02,Wunderground v.1.15,2014-08-21 23:46:00,
2014-08-21 18:51:00,82.3,79.1,30.03,NW,306,0.0,1.0,90,0.06,,,0.03,Wunderground v.1.15,2014-08-21 23:51:00,
2014-08-21 18:56:00,81.8,78.9,30.03,NW,306,0.0,0.0,91,0.06,,,0.03,Wunderground v.1.15,2014-08-21 23:56:00,
2014-08-21 19:01:00,81.4,78.5,30.03,NW,306,0.0,1.0,91,0.05,,,0.03,Wunderground v.1.15,2014-08-22 00:01:00,
2014-08-21 19:06:00,81.1,79.2,30.04,NW,306,0.0,0.0,94,0.04,,,0.03,Wunderground v.1.15,2014-08-22 00:06:00,
2014-08-21 19:11:00,80.7,78.8,30.04,NW,306,0.0,0.0,94,0.00,,,0.03,Wunderground v.1.15,2014-08-22 00:11:00,
2014-08-21 19:16:00,80.5,78.9,30.04,NW,306,0.0,0.0,95,0.00,,,0.03,Wunderground v.1.15,2014-08-22 00:16:00,
2014-08-21 19:21:00,80.2,78.3,30.04,NW,307,0.0,1.0,94,0.00,,,0.03,Wunderground v.1.15,2014-08-22 00:21:00,
2014-08-21 19:26:00,80.1,78.2,30.04,NW,307,0.0,0.0,94,0.00,,,0.03,Wunderground v.1.15,2014-08-22 00:26:00,
2014-08-21 19:31:00,80.0,78.1,30.04,NW,307,0.0,0.0,94,0.00,,,0.03,Wunderground v.1.15,2014-08-22 00:31:00,
2014-08-21 19:36:00,79.8,77.9,30.04,NW,307,0.0,0.0,94,0.00,,,0.03,Wunderground v.1.15,2014-08-22 00:36:00,
2014-08-21 19:41:00,79.6,77.7,30.04,NW,307,0.0,0.0,94,0.00,,,0.03,Wunderground v.1.15,2014-08-22 00:41:00,
2014-08-21 19:46:00,79.5,77.6,30.04,NW,307,0.0,0.0,94,0.00,,,0.03,Wunderground v.1.15,2014-08-22 00:46:00,